Date,TemperatureHighF,TemperatureAvgF,TemperatureLowF,DewpointHighF,DewpointAvgF,DewpointLowF,HumidityHigh,HumidityAvg,HumidityLow,PressureMaxIn,PressureMinIn,WindSpeedMaxMPH,WindSpeedAvgMPH,GustSpeedMaxMPH,PrecipitationSumIn
2013-2-1,40,35,25,28,14,4,67,44,25,30.27,29.75,19,5,0,0.00
2013-2-2,44,32,17,38,14,6,86,51,30,30.29,29.89,12,2,0,0.00
2013-2-3,49,42,30,38,30,24,99,68,43,29.88,29.70,8,2,0,0.00
2013-2-4,49,38,23,28,24,20,98,59,34,30.02,29.86,7,2,0,0.00
2013-2-5,60,46,35,36,33,28,97,62,37,29.88,29.74,8,2,0,0.00
2013-2-6,60,44,29,38,30,23,99,64,25,30.16,29.83,7,2,0,0.00
2013-2-7,50,43,35,43,38,34,99,85,65,30.21,29.86,9,3,0,0.40
2013-2-8,56,46,39,46,41,29,99,84,57,29.91,29.68,14,5,0,0.72
2013-2-9,51,39,27,29,24,18,97,60,27,30.23,29.91,8,2,0,0.00
2013-2-10,53,39,22,43,25,20,99,62,28,30.36,30.08,10,2,0,0.02
2013-2-11,63,57,46,61,56,43,99,97,92,30.07,29.79,11,4,0,0.06
2013-2-12,62,53,46,56,36,27,99,58,28,29.95,29.77,7,2,0,0.00
2013-2-13,49,46,42,47,44,36,99,95,64,29.82,29.49,8,2,0,0.21
2013-2-14,52,41,29,36,33,29,99,78,46,29.94,29.71,5,1,0,0.00
2013-2-15,63,43,27,40,32,27,99,73,36,29.96,29.79,7,1,0,0.00
2013-2-16,46,37,31,37,33,26,99,88,66,29.85,29.68,6,3,0,0.45
2013-2-17,37,29,20,26,14,7,82,56,29,30.16,29.79,16,4,0,0.00
2013-2-18,51,35,15,26,19,14,99,59,24,30.30,30.13,9,2,0,0.00
2013-2-19,51,44,36,51,40,26,99,86,60,30.12,29.73,10,3,0,0.15
2013-2-20,52,40,26,39,21,14,99,52,22,30.02,29.83,9,2,0,0.00
2013-2-21,53,40,22,24,19,15,95,47,23,30.13,29.98,10,2,0,0.00
2013-2-22,43,36,32,36,33,21,99,89,42,30.23,30.02,8,2,0,0.42
2013-2-23,43,40,36,43,40,36,99,99,99,29.99,29.68,5,2,0,1.05
2013-2-24,61,48,34,48,38,27,99,74,28,29.91,29.67,7,2,0,0.07
2013-2-25,44,38,33,30,25,22,84,60,43,30.11,29.91,8,2,0,0.00
2013-2-26,57,46,36,57,44,25,99,92,61,30.01,29.42,18,4,0,1.15
2013-2-27,58,49,41,45,41,37,99,78,48,29.65,29.48,6,3,0,0.00
2013-2-28,50,41,29,40,32,26,99,74,41,29.72,29.56,8,2,0,0.00